Time,TemperatureF,DewpointF,PressureIn,WindDirection,WindDirectionDegrees,WindSpeedMPH,WindSpeedGustMPH,Humidity,HourlyPrecipIn,Conditions,Clouds,dailyrainin,SoftwareType,DateUTC
2013-05-22 00:09:00,42.1,37.6,29.95,South,181,7.0,11.0,84,0.00,,SKC,0.00,VWS V13.01,2013-05-22 07:09:00,
2013-05-22 00:19:00,42.1,37.6,29.95,SSE,165,6.0,10.0,84,0.00,,SKC,0.00,VWS V13.01,2013-05-22 07:19:00,
2013-05-22 00:29:00,42.1,37.6,29.96,South,173,5.0,9.0,84,0.00,,SKC,0.00,VWS V13.01,2013-05-22 07:29:00,
2013-05-22 00:39:00,42.2,37.7,29.96,SSW,194,1.0,11.0,84,0.00,,SKC,0.00,VWS V13.01,2013-05-22 07:39:00,
2013-05-22 00:49:00,42.3,37.8,29.95,South,181,1.0,11.0,84,0.00,,SKC,0.00,VWS V13.01,2013-05-22 07:49:00,
2013-05-22 00:59:00,42.5,38.0,29.95,SSW,201,3.0,10.0,84,0.00,,SKC,0.00,VWS V13.01,2013-05-22 07:59:00,
2013-05-22 01:09:00,42.5,38.3,29.95,South,191,6.0,12.0,85,0.00,,SKC,0.00,VWS V13.01,2013-05-22 08:09:00,
2013-05-22 01:19:00,42.5,38.3,29.95,SSW,203,3.0,11.0,85,0.00,,SKC,0.00,VWS V13.01,2013-05-22 08:19:00,
2013-05-22 01:29:00,42.3,38.1,29.95,SW,214,2.0,12.0,85,0.00,,SKC,0.00,VWS V13.01,2013-05-22 08:29:00,
2013-05-22 01:39:00,42.3,38.1,29.95,SW,216,5.0,13.0,85,0.00,,SKC,0.00,VWS V13.01,2013-05-22 08:39:00,
2013-05-22 01:49:00,42.3,38.4,29.95,South,187,0.0,13.0,86,0.00,,SKC,0.00,VWS V13.01,2013-05-22 08:49:00,
2013-05-22 01:59:00,42.3,38.1,29.95,SSW,195,6.0,14.0,85,0.00,,SKC,0.00,VWS V13.01,2013-05-22 08:59:00,
2013-05-22 02:09:00,42.3,38.1,29.95,South,177,2.0,12.0,85,0.00,,SKC,0.00,VWS V13.01,2013-05-22 09:09:00,
2013-05-22 02:19:00,42.3,38.1,29.94,SSW,210,4.0,12.0,85,0.00,,SKC,0.00,VWS V13.01,2013-05-22 09:19:00,
2013-05-22 02:29:00,42.3,38.1,29.94,South,181,4.0,17.0,85,0.00,,SKC,0.00,VWS V13.01,2013-05-22 09:29:00,
2013-05-22 02:39:00,42.3,38.1,29.94,South,171,7.0,14.0,85,0.00,,SKC,0.00,VWS V13.01,2013-05-22 09:39:00,
2013-05-22 02:49:00,42.3,38.1,29.94,SSW,193,2.0,14.0,85,0.00,,SKC,0.00,VWS V13.01,2013-05-22 09:49:00,
2013-05-22 02:59:00,42.2,38.3,29.94,SSE,162,3.0,13.0,86,0.00,,SKC,0.00,VWS V13.01,2013-05-22 09:59:00,
2013-05-22 03:09:00,42.2,38.3,29.94,South,191,7.0,11.0,86,0.00,,SKC,0.00,VWS V13.01,2013-05-22 10:09:00,
2013-05-22 03:19:00,42.2,38.3,29.94,SSW,213,11.0,15.0,86,0.00,,SKC,0.00,VWS V13.01,2013-05-22 10:19:00,
2013-05-22 03:29:00,41.8,37.9,29.94,SSW,198,7.0,16.0,86,0.01,,SKC,0.01,VWS V13.01,2013-05-22 10:29:00,
2013-05-22 03:39:00,41.8,37.9,29.94,SSW,192,3.0,14.0,86,0.01,,SKC,0.01,VWS V13.01,2013-05-22 10:39:00,
2013-05-22 03:49:00,41.6,37.7,29.94,SSW,195,7.0,14.0,86,0.01,,SKC,0.01,VWS V13.01,2013-05-22 10:49:00,
2013-05-22 03:59:00,41.5,37.9,29.94,SSW,203,6.0,15.0,87,0.02,,SKC,0.02,VWS V13.01,2013-05-22 10:59:00,
2013-05-22 04:09:00,41.3,37.7,29.94,SSW,207,11.0,14.0,87,0.02,,SKC,0.02,VWS V13.01,2013-05-22 11:09:00,
2013-05-22 04:19:00,41.2,37.6,29.94,SSW,207,4.0,11.0,87,0.02,,SKC,0.02,VWS V13.01,2013-05-22 11:19:00,
2013-05-22 04:29:00,41.1,37.5,29.94,SSW,197,5.0,12.0,87,0.02,,SKC,0.02,VWS V13.01,2013-05-22 11:29:00,
2013-05-22 04:39:00,40.9,37.3,29.94,SSW,212,6.0,11.0,87,0.01,,SKC,0.02,VWS V13.01,2013-05-22 11:39:00,
2013-05-22 04:49:00,40.9,37.3,29.94,SSW,194,6.0,10.0,87,0.01,,SKC,0.02,VWS V13.01,2013-05-22 11:49:00,
2013-05-22 04:59:00,40.9,37.3,29.93,SSW,195,4.0,12.0,87,0.01,,SKC,0.02,VWS V13.01,2013-05-22 11:59:00,
2013-05-22 05:09:00,40.9,37.3,29.93,SSE,167,4.0,9.0,87,0.00,,SKC,0.02,VWS V13.01,2013-05-22 12:09:00,
2013-05-22 05:19:00,40.8,37.2,29.93,SSW,201,4.0,10.0,87,0.00,,SKC,0.02,VWS V13.01,2013-05-22 12:19:00,
2013-05-22 05:29:00,40.8,37.2,29.93,SSW,206,5.0,11.0,87,0.00,,SKC,0.02,VWS V13.01,2013-05-22 12:29:00,
2013-05-22 05:39:00,40.8,37.2,29.93,SSW,203,5.0,11.0,87,0.00,,SKC,0.02,VWS V13.01,2013-05-22 12:39:00,
2013-05-22 05:49:00,40.6,37.0,29.93,SSW,206,5.0,11.0,87,0.00,,SKC,0.02,VWS V13.01,2013-05-22 12:49:00,
2013-05-22 05:59:00,40.6,37.0,29.93,SSW,200,4.0,11.0,87,0.00,,SKC,0.02,VWS V13.01,2013-05-22 12:59:00,
2013-05-22 06:09:00,40.5,36.9,29.93,SSW,195,5.0,12.0,87,0.00,,SKC,0.02,VWS V13.01,2013-05-22 13:09:00,
2013-05-22 06:19:00,40.5,36.9,29.92,SSW,208,7.0,16.0,87,0.00,,SKC,0.02,VWS V13.01,2013-05-22 13:19:00,
2013-05-22 06:29:00,40.5,36.9,29.92,SW,217,10.0,13.0,87,0.00,,SKC,0.02,VWS V13.01,2013-05-22 13:29:00,
2013-05-22 06:39:00,40.5,36.9,29.92,SSW,197,7.0,12.0,87,0.00,,SKC,0.02,VWS V13.01,2013-05-22 13:39:00,
2013-05-22 06:49:00,40.5,36.9,29.92,SSE,150,7.0,12.0,87,0.00,,SKC,0.02,VWS V13.01,2013-05-22 13:49:00,
2013-05-22 06:59:00,40.3,36.8,29.92,SSE,152,7.0,12.0,87,0.00,,SKC,0.02,VWS V13.01,2013-05-22 13:59:00,
2013-05-22 07:09:00,40.3,36.8,29.92,South,184,4.0,11.0,87,0.00,,SKC,0.02,VWS V13.01,2013-05-22 14:09:00,
2013-05-22 07:19:00,40.2,36.3,29.93,South,176,4.0,14.0,86,0.00,,SKC,0.02,VWS V13.01,2013-05-22 14:19:00,
2013-05-22 07:29:00,40.1,36.3,29.92,South,188,6.0,12.0,86,0.01,,SKC,0.03,VWS V13.01,2013-05-22 14:29:00,
2013-05-22 07:39:00,40.1,36.3,29.92,SE,129,4.0,10.0,86,0.01,,SKC,0.03,VWS V13.01,2013-05-22 14:39:00,
2013-05-22 07:49:00,40.1,36.3,29.92,South,182,2.0,12.0,86,0.01,,SKC,0.03,VWS V13.01,2013-05-22 14:49:00,
2013-05-22 07:59:00,40.2,36.3,29.92,South,190,3.0,17.0,86,0.01,,SKC,0.03,VWS V13.01,2013-05-22 14:59:00,
2013-05-22 08:09:00,40.3,36.5,29.92,South,173,6.0,11.0,86,0.02,,SKC,0.04,VWS V13.01,2013-05-22 15:09:00,
2013-05-22 08:19:00,40.5,36.7,29.93,South,189,5.0,14.0,86,0.02,,SKC,0.04,VWS V13.01,2013-05-22 15:19:00,
2013-05-22 08:29:00,40.5,36.7,29.92,SSW,194,4.0,14.0,86,0.02,,SKC,0.04,VWS V13.01,2013-05-22 15:29:00,
2013-05-22 08:39:00,40.6,37.0,29.92,SSE,160,6.0,13.0,87,0.01,,SKC,0.04,VWS V13.01,2013-05-22 15:39:00,
2013-05-22 08:49:00,40.8,37.2,29.92,South,191,6.0,12.0,87,0.01,,SKC,0.04,VWS V13.01,2013-05-22 15:49:00,
2013-05-22 08:59:00,41.2,37.6,29.92,SSW,205,5.0,17.0,87,0.01,,SKC,0.04,VWS V13.01,2013-05-22 15:59:00,
2013-05-22 09:09:00,41.2,37.6,29.92,SSE,151,3.0,14.0,87,0.01,,SKC,0.04,VWS V13.01,2013-05-22 16:09:00,
2013-05-22 09:19:00,41.3,37.4,29.92,SSW,194,4.0,16.0,86,0.00,,SKC,0.04,VWS V13.01,2013-05-22 16:19:00,
2013-05-22 09:29:00,41.5,37.6,29.92,SE,141,5.0,18.0,86,0.00,,SKC,0.04,VWS V13.01,2013-05-22 16:29:00,
2013-05-22 09:39:00,41.8,37.9,29.92,SSE,168,5.0,14.0,86,0.00,,SKC,0.04,VWS V13.01,2013-05-22 16:39:00,
2013-05-22 09:49:00,41.6,37.7,29.92,South,183,6.0,13.0,86,0.01,,SKC,0.05,VWS V13.01,2013-05-22 16:49:00,
2013-05-22 09:59:00,41.8,37.9,29.92,SW,215,6.0,14.0,86,0.01,,SKC,0.05,VWS V13.01,2013-05-22 16:59:00,
2013-05-22 10:09:00,41.9,38.0,29.92,South,183,4.0,15.0,86,0.01,,SKC,0.05,VWS V13.01,2013-05-22 17:09:00,
2013-05-22 10:19:00,42.2,38.3,29.92,South,185,6.0,16.0,86,0.01,,SKC,0.05,VWS V13.01,2013-05-22 17:19:00,
2013-05-22 10:29:00,42.2,38.0,29.92,SE,144,6.0,16.0,85,0.01,,SKC,0.05,VWS V13.01,2013-05-22 17:29:00,
2013-05-22 10:39:00,42.3,38.1,29.92,South,171,6.0,17.0,85,0.02,,SKC,0.06,VWS V13.01,2013-05-22 17:39:00,
2013-05-22 10:49:00,42.5,38.6,29.92,South,191,7.0,15.0,86,0.02,,SKC,0.06,VWS V13.01,2013-05-22 17:49:00,
2013-05-22 10:59:00,42.8,38.9,29.92,SSE,153,5.0,17.0,86,0.01,,SKC,0.06,VWS V13.01,2013-05-22 17:59:00,
2013-05-22 11:09:00,42.8,38.6,29.92,SSW,210,10.0,17.0,85,0.01,,SKC,0.06,VWS V13.01,2013-05-22 18:09:00,
2013-05-22 11:19:00,43.1,38.9,29.92,SSE,156,7.0,15.0,85,0.01,,SKC,0.06,VWS V13.01,2013-05-22 18:19:00,
2013-05-22 11:29:00,43.2,39.3,29.92,South,191,4.0,13.0,86,0.01,,SKC,0.06,VWS V13.01,2013-05-22 18:29:00,
2013-05-22 11:39:00,43.6,39.4,29.92,SE,129,9.0,15.0,85,0.01,,SKC,0.06,VWS V13.01,2013-05-22 18:39:00,
2013-05-22 11:49:00,43.9,39.7,29.92,SSW,200,11.0,14.0,85,0.00,,SKC,0.06,VWS V13.01,2013-05-22 18:49:00,
2013-05-22 11:59:00,44.1,39.9,29.92,SSE,162,8.0,17.0,85,0.00,,SKC,0.06,VWS V13.01,2013-05-22 18:59:00,
2013-05-22 12:09:00,44.1,39.9,29.92,SSW,202,8.0,14.0,85,0.01,,SKC,0.07,VWS V13.01,2013-05-22 19:09:00,
2013-05-22 12:19:00,44.2,40.0,29.92,SSE,161,11.0,14.0,85,0.01,,SKC,0.07,VWS V13.01,2013-05-22 19:19:00,
2013-05-22 12:29:00,44.2,40.0,29.92,South,171,9.0,14.0,85,0.01,,SKC,0.07,VWS V13.01,2013-05-22 19:29:00,
2013-05-22 12:39:00,44.3,40.1,29.92,SSW,211,10.0,16.0,85,0.01,,SKC,0.07,VWS V13.01,2013-05-22 19:39:00,
2013-05-22 12:49:00,44.8,40.6,29.92,South,182,6.0,13.0,85,0.01,,SKC,0.07,VWS V13.01,2013-05-22 19:49:00,
2013-05-22 12:59:00,44.9,40.7,29.91,South,191,11.0,13.0,85,0.01,,SKC,0.07,VWS V13.01,2013-05-22 19:59:00,
2013-05-22 13:09:00,45.1,40.9,29.91,SSW,210,11.0,13.0,85,0.01,,SKC,0.07,VWS V13.01,2013-05-22 20:09:00,
2013-05-22 13:19:00,45.2,41.0,29.92,South,181,10.0,14.0,85,0.01,,SKC,0.08,VWS V13.01,2013-05-22 20:19:00,
2013-05-22 13:29:00,45.4,40.9,29.92,SSE,153,4.0,14.0,84,0.01,,SKC,0.08,VWS V13.01,2013-05-22 20:29:00,
2013-05-22 13:39:00,45.7,41.2,29.92,South,189,5.0,11.0,84,0.01,,SKC,0.08,VWS V13.01,2013-05-22 20:39:00,
2013-05-22 13:49:00,45.8,41.2,29.92,South,186,7.0,16.0,84,0.02,,SKC,0.09,VWS V13.01,2013-05-22 20:49:00,
2013-05-22 13:59:00,46.1,41.8,29.91,SSW,192,6.0,14.0,85,0.02,,SKC,0.09,VWS V13.01,2013-05-22 20:59:00,
2013-05-22 14:09:00,46.2,42.0,29.91,SSE,162,11.0,17.0,85,0.02,,SKC,0.09,VWS V13.01,2013-05-22 21:09:00,
2013-05-22 14:19:00,46.4,42.1,29.91,SSW,208,4.0,15.0,85,0.02,,SKC,0.09,VWS V13.01,2013-05-22 21:19:00,
2013-05-22 14:29:00,46.5,42.2,29.92,SSW,196,2.0,14.0,85,0.01,,SKC,0.09,VWS V13.01,2013-05-22 21:29:00,
2013-05-22 14:39:00,46.8,42.8,29.92,South,182,10.0,14.0,86,0.01,,SKC,0.09,VWS V13.01,2013-05-22 21:39:00,
2013-05-22 14:49:00,47.0,43.0,29.92,South,190,6.0,16.0,86,0.01,,SKC,0.09,VWS V13.01,2013-05-22 21:49:00,
2013-05-22 14:59:00,47.3,43.0,29.92,South,176,6.0,14.0,85,0.00,,SKC,0.09,VWS V13.01,2013-05-22 21:59:00,
2013-05-22 15:09:00,47.4,42.8,29.92,SSE,162,4.0,18.0,84,0.00,,SKC,0.09,VWS V13.01,2013-05-22 22:09:00,
2013-05-22 15:19:00,47.9,43.3,29.91,South,172,6.0,17.0,84,0.00,,SKC,0.09,VWS V13.01,2013-05-22 22:19:00,
2013-05-22 15:29:00,48.3,43.7,29.91,SSW,200,4.0,19.0,84,0.00,,SKC,0.09,VWS V13.01,2013-05-22 22:29:00,
2013-05-22 15:39:00,48.5,43.3,29.91,South,172,5.0,16.0,82,0.00,,SKC,0.09,VWS V13.01,2013-05-22 22:39:00,
2013-05-22 15:49:00,48.3,43.1,29.91,SW,222,12.0,16.0,82,0.00,,SKC,0.09,VWS V13.01,2013-05-22 22:49:00,
2013-05-22 15:59:00,48.2,43.0,29.91,South,186,4.0,18.0,82,0.00,,SKC,0.09,VWS V13.01,2013-05-22 22:59:00,
2013-05-22 16:09:00,48.2,43.3,29.91,SSW,196,9.0,16.0,83,0.01,,SKC,0.10,VWS V13.01,2013-05-22 23:09:00,
2013-05-22 16:19:00,48.0,43.4,29.91,SSE,152,6.0,12.0,84,0.02,,SKC,0.11,VWS V13.01,2013-05-22 23:19:00,
2013-05-22 16:29:00,47.9,43.3,29.92,SSW,212,4.0,11.0,84,0.04,,SKC,0.13,VWS V13.01,2013-05-22 23:29:00,
2013-05-22 16:39:00,47.7,43.4,29.92,SW,217,5.0,12.0,85,0.06,,SKC,0.15,VWS V13.01,2013-05-22 23:39:00,
2013-05-22 16:49:00,47.6,43.6,29.92,SSE,160,1.0,14.0,86,0.08,,SKC,0.17,VWS V13.01,2013-05-22 23:49:00,
2013-05-22 16:59:00,47.4,43.4,29.92,South,176,5.0,13.0,86,0.10,,SKC,0.19,VWS V13.01,2013-05-22 23:59:00,
2013-05-22 17:09:00,47.4,43.7,29.92,South,184,7.0,14.0,87,0.10,,SKC,0.19,VWS V13.01,2013-05-23 00:09:00,
2013-05-22 17:19:00,47.7,44.0,29.91,SSW,213,7.0,13.0,87,0.09,,SKC,0.19,VWS V13.01,2013-05-23 00:19:00,
2013-05-22 17:29:00,48.0,44.3,29.91,SW,229,10.0,16.0,87,0.08,,SKC,0.19,VWS V13.01,2013-05-23 00:29:00,
2013-05-22 17:39:00,48.0,44.3,29.91,SSE,167,6.0,15.0,87,0.06,,SKC,0.19,VWS V13.01,2013-05-23 00:39:00,
2013-05-22 17:49:00,48.0,44.0,29.92,South,188,9.0,17.0,86,0.05,,SKC,0.20,VWS V13.01,2013-05-23 00:49:00,
2013-05-22 17:59:00,48.0,44.0,29.92,SW,231,6.0,15.0,86,0.03,,SKC,0.20,VWS V13.01,2013-05-23 00:59:00,
2013-05-22 18:09:00,47.9,43.9,29.92,WSW,244,8.0,14.0,86,0.03,,SKC,0.22,VWS V13.01,2013-05-23 01:09:00,
2013-05-22 18:19:00,47.7,44.0,29.92,SSW,197,7.0,18.0,87,0.03,,SKC,0.22,VWS V13.01,2013-05-23 01:19:00,
2013-05-22 18:29:00,47.7,44.0,29.92,SSW,212,6.0,16.0,87,0.03,,SKC,0.22,VWS V13.01,2013-05-23 01:29:00,
2013-05-22 18:39:00,47.7,44.0,29.92,SW,222,8.0,15.0,87,0.03,,SKC,0.22,VWS V13.01,2013-05-23 01:39:00,
2013-05-22 18:49:00,47.9,44.2,29.92,WSW,241,6.0,16.0,87,0.03,,SKC,0.22,VWS V13.01,2013-05-23 01:49:00,
2013-05-22 18:59:00,47.7,44.0,29.92,SSW,208,13.0,16.0,87,0.03,,SKC,0.23,VWS V13.01,2013-05-23 01:59:00,
2013-05-22 19:09:00,47.6,43.9,29.92,SW,231,10.0,17.0,87,0.03,,SKC,0.23,VWS V13.01,2013-05-23 02:09:00,
2013-05-22 19:19:00,47.6,44.2,29.92,SSW,193,4.0,14.0,88,0.02,,SKC,0.24,VWS V13.01,2013-05-23 02:19:00,
2013-05-22 19:29:00,47.6,44.2,29.93,SSW,204,9.0,14.0,88,0.02,,SKC,0.24,VWS V13.01,2013-05-23 02:29:00,
2013-05-22 19:39:00,47.4,44.0,29.93,SW,228,3.0,12.0,88,0.03,,SKC,0.25,VWS V13.01,2013-05-23 02:39:00,
2013-05-22 19:49:00,47.3,43.9,29.93,SSW,203,12.0,12.0,88,0.03,,SKC,0.25,VWS V13.01,2013-05-23 02:49:00,
2013-05-22 19:59:00,47.3,43.9,29.93,SSW,193,3.0,12.0,88,0.03,,SKC,0.25,VWS V13.01,2013-05-23 02:59:00,
2013-05-22 20:09:00,47.3,43.9,29.93,South,189,1.0,11.0,88,0.02,,SKC,0.25,VWS V13.01,2013-05-23 03:09:00,
2013-05-22 20:19:00,47.1,43.7,29.93,SSW,207,2.0,11.0,88,0.02,,SKC,0.25,VWS V13.01,2013-05-23 03:19:00,
2013-05-22 20:29:00,47.0,43.6,29.93,South,188,5.0,14.0,88,0.02,,SKC,0.26,VWS V13.01,2013-05-23 03:29:00,
2013-05-22 20:39:00,47.0,43.9,29.93,South,173,4.0,12.0,89,0.02,,SKC,0.26,VWS V13.01,2013-05-23 03:39:00,
2013-05-22 20:49:00,46.8,43.7,29.93,SSW,212,3.0,11.0,89,0.01,,SKC,0.26,VWS V13.01,2013-05-23 03:49:00,
2013-05-22 20:59:00,46.8,43.7,29.93,SSW,195,6.0,10.0,89,0.01,,SKC,0.26,VWS V13.01,2013-05-23 03:59:00,
2013-05-22 21:09:00,46.5,43.4,29.93,SSW,213,4.0,15.0,89,0.01,,SKC,0.26,VWS V13.01,2013-05-23 04:09:00,
2013-05-22 21:19:00,46.5,43.4,29.93,SSW,199,3.0,10.0,89,0.01,,SKC,0.26,VWS V13.01,2013-05-23 04:19:00,
2013-05-22 21:29:00,46.4,43.3,29.93,South,179,9.0,13.0,89,0.01,,SKC,0.26,VWS V13.01,2013-05-23 04:29:00,
2013-05-22 21:39:00,46.4,43.3,29.93,South,191,9.0,15.0,89,0.00,,SKC,0.26,VWS V13.01,2013-05-23 04:39:00,
2013-05-22 21:49:00,46.4,43.3,29.93,SSE,166,6.0,13.0,89,0.00,,SKC,0.26,VWS V13.01,2013-05-23 04:49:00,
2013-05-22 21:59:00,46.4,43.3,29.94,South,183,11.0,13.0,89,0.00,,SKC,0.26,VWS V13.01,2013-05-23 04:59:00,
2013-05-22 22:09:00,46.4,43.3,29.94,SW,236,3.0,13.0,89,0.00,,SKC,0.26,VWS V13.01,2013-05-23 05:09:00,
2013-05-22 22:19:00,46.2,42.8,29.94,SW,218,3.0,15.0,88,0.00,,SKC,0.26,VWS V13.01,2013-05-23 05:19:00,
2013-05-22 22:29:00,46.2,42.8,29.94,South,183,2.0,14.0,88,0.00,,SKC,0.26,VWS V13.01,2013-05-23 05:29:00,
2013-05-22 22:39:00,46.1,42.8,29.94,South,186,7.0,13.0,88,0.01,,SKC,0.27,VWS V13.01,2013-05-23 05:39:00,
2013-05-22 22:49:00,46.1,43.0,29.94,South,191,3.0,13.0,89,0.01,,SKC,0.27,VWS V13.01,2013-05-23 05:49:00,
2013-05-22 22:59:00,46.0,43.0,29.94,South,190,4.0,14.0,89,0.01,,SKC,0.27,VWS V13.01,2013-05-23 05:59:00,
2013-05-22 23:09:00,46.0,43.0,29.94,SW,216,6.0,11.0,89,0.01,,SKC,0.27,VWS V13.01,2013-05-23 06:09:00,
2013-05-22 23:19:00,45.8,42.8,29.94,SSW,208,5.0,11.0,89,0.02,,SKC,0.28,VWS V13.01,2013-05-23 06:19:00,
2013-05-22 23:29:00,45.7,42.7,29.94,SSW,198,5.0,12.0,89,0.02,,SKC,0.28,VWS V13.01,2013-05-23 06:29:00,
2013-05-22 23:39:00,45.7,42.4,29.94,SSW,198,9.0,10.0,88,0.02,,SKC,0.28,VWS V13.01,2013-05-23 06:39:00,
2013-05-22 23:49:00,45.5,42.2,29.94,SSW,204,4.0,12.0,88,0.01,,SKC,0.28,VWS V13.01,2013-05-23 06:49:00,
2013-05-22 23:59:00,45.5,42.2,29.94,South,190,6.0,12.0,88,0.01,,SKC,0.00,VWS V13.01,2013-05-23 06:59:00,